| time (UTC) | temp F | wind direction | speed MPH | gust MPH | rain 1hr in | rain 24hr in | rain mn in | humidity % | barometer mb |
| 20260506091011 | 27 | 86 | 0.0 | 0.0 | 0.00 | 0.00 | 0.00 | 85 | 1014.5 |
| 20260506090505 | 27 | 84 | 0.0 | 0.0 | 0.00 | 0.00 | 0.00 | 86 | 1014.4 |
| 20260506090230 | 27 | 85 | 0.0 | 0.0 | 0.00 | 0.00 | 0.00 | 85 | 1014.4 |
| 20260506085454 | 27 | 85 | 0.0 | 0.0 | 0.00 | 0.00 | 0.00 | 85 | 1014.3 |
| 20260506084948 | 27 | 84 | 0.0 | 0.0 | 0.00 | 0.00 | 0.00 | 84 | 1014.2 |
| 20260506084441 | 27 | 84 | 0.0 | 0.0 | 0.00 | 0.00 | 0.00 | 85 | 1014.2 |
| 20260506083935 | 27 | 85 | 0.0 | 0.0 | 0.00 | 0.00 | 0.00 | 85 | 1014.2 |
| 20260506083700 | 27 | 92 | 0.0 | 0.0 | 0.00 | 0.00 | 0.00 | 86 | 1014.3 |
| 20260506082924 | 27 | 92 | 0.0 | 0.0 | 0.00 | 0.00 | 0.00 | 86 | 1014.3 |
| 20260506082418 | 27 | 91 | 0.0 | 0.0 | 0.00 | 0.00 | 0.00 | 86 | 1014.3 |
| 20260506081911 | 27 | 92 | 0.0 | 0.0 | 0.00 | 0.00 | 0.00 | 85 | 1014.3 |
| 20260506081636 | 27 | 92 | 0.0 | 0.0 | 0.00 | 0.00 | 0.00 | 83 | 1014.4 |
| 20260506080859 | 28 | 92 | 0.0 | 0.0 | 0.00 | 0.00 | 0.00 | 82 | 1014.4 |
| 20260506080359 | 29 | 92 | 0.0 | 0.0 | 0.00 | 0.00 | 0.00 | 80 | 1014.2 |
| 20260506080353 | 28 | 92 | 0.0 | 0.0 | 0.00 | 0.00 | 0.00 | 81 | 1014.3 |
| 20260506073317 | 30 | 92 | 0.0 | 0.0 | 0.00 | 0.00 | 0.00 | 79 | 1014.1 |
| 20260506073043 | 30 | 92 | 0.0 | 0.0 | 0.00 | 0.00 | 0.00 | 79 | 1014.1 |
| 20260506072306 | 30 | 91 | 0.0 | 0.0 | 0.00 | 0.00 | 0.00 | 79 | 1014.1 |
| 20260506071800 | 30 | 91 | 0.0 | 0.0 | 0.00 | 0.00 | 0.00 | 78 | 1014.1 |
| 20260506071254 | 30 | 92 | 0.0 | 0.0 | 0.00 | 0.00 | 0.00 | 78 | 1014.1 |
| 20260506070752 | 30 | 91 | 0.0 | 0.0 | 0.00 | 0.00 | 0.00 | 79 | 1014.2 |
| 20260506070237 | 30 | 92 | 0.0 | 0.0 | 0.00 | 0.00 | 0.00 | 78 | 1014.2 |
| 20260506062149 | 30 | 92 | 0.0 | 0.0 | 0.00 | 0.00 | 0.00 | 80 | 1014.2 |
| 20260506061643 | 29 | 92 | 0.0 | 0.0 | 0.00 | 0.00 | 0.00 | 80 | 1014.2 |
| 20260506061411 | 30 | 91 | 0.0 | 0.0 | 0.00 | 0.00 | 0.00 | 80 | 1014.2 |
| 20260506060637 | 30 | 91 | 0.0 | 0.0 | 0.00 | 0.00 | 0.00 | 79 | 1014.1 |
| 20260506060136 | 30 | 92 | 0.0 | 0.0 | 0.00 | 0.00 | 0.00 | 79 | 1014.2 |
| 20260506051134 | 32 | 92 | 0.0 | 0.0 | 0.00 | 0.00 | 0.00 | 75 | 1013.7 |
| 20260506050631 | 32 | 92 | 0.0 | 0.0 | 0.00 | 0.00 | 0.00 | 76 | 1013.6 |
| 20260506050130 | 32 | 91 | 0.0 | 0.0 | 0.00 | 0.00 | 0.00 | 76 | 1013.6 |
| 20260506045124 | 32 | 92 | 0.0 | 0.0 | 0.00 | 0.00 | 0.00 | 76 | 1013.5 |
| 20260506044625 | 32 | 91 | 0.0 | 0.0 | 0.00 | 0.00 | 0.00 | 75 | 1013.5 |
| 20260506044126 | 32 | 91 | 0.0 | 0.0 | 0.00 | 0.00 | 0.00 | 75 | 1013.6 |
| 20260506043624 | 33 | 91 | 0.0 | 0.0 | 0.00 | 0.00 | 0.00 | 74 | 1013.6 |
| 20260506043124 | 33 | 92 | 0.0 | 0.0 | 0.00 | 0.00 | 0.00 | 74 | 1013.6 |
| 20260506042623 | 33 | 90 | 0.0 | 0.0 | 0.00 | 0.00 | 0.00 | 74 | 1013.6 |
| 20260506042122 | 33 | 166 | 0.0 | 0.0 | 0.00 | 0.00 | 0.00 | 74 | 1013.5 |
| 20260506041623 | 33 | 179 | 0.0 | 0.0 | 0.00 | 0.00 | 0.00 | 73 | 1013.5 |
| 20260506041123 | 33 | 179 | 0.0 | 0.0 | 0.00 | 0.00 | 0.00 | 71 | 1013.5 |
| 20260506040622 | 34 | 181 | 0.0 | 0.0 | 0.00 | 0.00 | 0.00 | 71 | 1013.4 |
| 20260506040124 | 34 | 179 | 0.0 | 1.0 | 0.00 | 0.00 | 0.00 | 70 | 1013.2 |
| 20260506035620 | 35 | 180 | 0.0 | 1.0 | 0.00 | 0.00 | 0.00 | 70 | 1013.2 |
| 20260506035119 | 35 | 190 | 0.0 | 2.0 | 0.00 | 0.00 | 0.00 | 69 | 1013.2 |
| 20260506034619 | 35 | 190 | 0.0 | 2.0 | 0.00 | 0.00 | 0.00 | 69 | 1013.1 |
| 20260506034119 | 35 | 139 | 0.0 | 0.0 | 0.00 | 0.00 | 0.00 | 69 | 1013.1 |
| 20260506033620 | 35 | 115 | 0.0 | 0.0 | 0.00 | 0.00 | 0.00 | 69 | 1012.9 |
| 20260506033121 | 35 | 141 | 0.0 | 1.0 | 0.00 | 0.00 | 0.00 | 70 | 1012.8 |
| 20260506032618 | 35 | 107 | 0.0 | 1.0 | 0.00 | 0.00 | 0.00 | 70 | 1012.9 |
| 20260506032118 | 35 | 144 | 0.0 | 0.0 | 0.00 | 0.00 | 0.00 | 70 | 1012.9 |
| 20260506031620 | 35 | 338 | 0.0 | 1.0 | 0.00 | 0.00 | 0.00 | 69 | 1012.9 |
| 20260506031114 | 36 | 339 | 0.0 | 1.0 | 0.00 | 0.00 | 0.00 | 69 | 1012.8 |
| 20260506030615 | 36 | 115 | 0.0 | 1.0 | 0.00 | 0.00 | 0.00 | 69 | 1012.8 |
| 20260506030115 | 36 | 103 | 0.0 | 0.0 | 0.00 | 0.00 | 0.00 | 69 | 1012.8 |
| 20260506025848 | 36 | 103 | 0.0 | 0.0 | 0.00 | 0.00 | 0.00 | 68 | 1012.8 |
| 20260506025114 | 37 | 103 | 0.0 | 0.0 | 0.00 | 0.00 | 0.00 | 67 | 1012.8 |
| 20260506024614 | 37 | 117 | 0.0 | 0.0 | 0.00 | 0.00 | 0.00 | 67 | 1012.8 |
| 20260506024116 | 37 | 32 | 0.0 | 0.0 | 0.00 | 0.00 | 0.00 | 66 | 1012.7 |
| 20260506023615 | 37 | 121 | 0.0 | 0.0 | 0.00 | 0.00 | 0.00 | 66 | 1012.7 |
| 20260506023116 | 38 | 63 | 0.0 | 0.0 | 0.00 | 0.00 | 0.00 | 65 | 1012.6 |
| 20260506022610 | 39 | 63 | 0.0 | 0.0 | 0.00 | 0.00 | 0.00 | 63 | 1012.5 |
| 20260506022110 | 39 | 63 | 0.0 | 0.0 | 0.00 | 0.00 | 0.00 | 62 | 1012.5 |
| 20260506021612 | 40 | 100 | 0.0 | 1.0 | 0.00 | 0.00 | 0.00 | 62 | 1012.4 |
| 20260506021111 | 40 | 142 | 0.0 | 1.0 | 0.00 | 0.00 | 0.00 | 61 | 1012.4 |
| 20260506020841 | 40 | 271 | 0.0 | 2.0 | 0.00 | 0.00 | 0.00 | 60 | 1012.3 |
| 20260506020116 | 41 | 85 | 0.0 | 1.0 | 0.00 | 0.00 | 0.00 | 59 | 1012.0 |
| 20260506020111 | 41 | 128 | 0.0 | 2.0 | 0.00 | 0.00 | 0.00 | 59 | 1012.2 |
| 20260506015111 | 41 | 80 | 0.0 | 2.0 | 0.00 | 0.00 | 0.00 | 58 | 1012.0 |
| 20260506014612 | 41 | 13 | 0.0 | 2.0 | 0.00 | 0.00 | 0.00 | 58 | 1011.9 |
| 20260506014340 | 42 | 120 | 0.0 | 1.0 | 0.00 | 0.00 | 0.00 | 58 | 1011.9 |
| 20260506013608 | 42 | 28 | 0.0 | 2.0 | 0.00 | 0.00 | 0.00 | 57 | 1011.8 |
| 20260506013340 | 42 | 19 | 0.0 | 2.0 | 0.00 | 0.00 | 0.00 | 56 | 1011.7 |
| 20260506012607 | 42 | 88 | 0.0 | 3.0 | 0.00 | 0.00 | 0.00 | 55 | 1011.6 |
| 20260506012106 | 42 | 15 | 0.0 | 3.0 | 0.00 | 0.00 | 0.00 | 58 | 1011.6 |
| 20260506011606 | 43 | 22 | 0.0 | 0.0 | 0.00 | 0.00 | 0.00 | 57 | 1011.6 |
| 20260506011106 | 44 | 9 | 0.0 | 2.0 | 0.00 | 0.00 | 0.00 | 54 | 1011.5 |
| 20260506010606 | 44 | 89 | 0.0 | 2.0 | 0.00 | 0.00 | 0.00 | 53 | 1011.4 |
| 20260506010107 | 44 | 134 | 0.0 | 3.0 | 0.00 | 0.00 | 0.00 | 53 | 1011.4 |
| 20260506005607 | 45 | 335 | 0.0 | 4.0 | 0.00 | 0.00 | 0.00 | 52 | 1011.4 |
| 20260506005108 | 45 | 298 | 0.0 | 4.0 | 0.00 | 0.00 | 0.00 | 52 | 1011.3 |
| 20260506004607 | 46 | 132 | 0.0 | 1.0 | 0.00 | 0.00 | 0.00 | 52 | 1011.3 |
| 20260506004107 | 46 | 162 | 0.0 | 1.0 | 0.00 | 0.00 | 0.00 | 51 | 1011.2 |
| 20260506003842 | 47 | 131 | 0.0 | 2.0 | 0.00 | 0.00 | 0.00 | 51 | 1011.1 |
| 20260506003106 | 47 | 79 | 0.0 | 3.0 | 0.00 | 0.00 | 0.00 | 50 | 1011.0 |
| 20260506002603 | 48 | 222 | 0.0 | 3.0 | 0.00 | 0.00 | 0.00 | 49 | 1010.8 |
| 20260506002102 | 48 | 116 | 0.0 | 3.0 | 0.00 | 0.00 | 0.00 | 48 | 1010.9 |
| 20260506001602 | 49 | 6 | 0.0 | 3.0 | 0.00 | 0.00 | 0.00 | 47 | 1010.8 |
| 20260506001340 | 48 | 173 | 0.0 | 4.0 | 0.00 | 0.00 | 0.00 | 48 | 1010.8 |
| 20260506000557 | 49 | 319 | 1.0 | 4.0 | 0.00 | 0.00 | 0.00 | 47 | 1010.8 |
| 20260506000055 | 49 | 126 | 1.0 | 6.0 | 0.00 | 0.00 | 0.00 | 47 | 1010.7 |
| 20260505235555 | 50 | 184 | 0.0 | 6.0 | 0.00 | 0.00 | 0.00 | 45 | 1010.6 |
| 20260505235055 | 50 | 116 | 0.0 | 3.0 | 0.00 | 0.00 | 0.00 | 44 | 1010.6 |
| 20260505234554 | 50 | 135 | 0.0 | 6.0 | 0.00 | 0.00 | 0.00 | 43 | 1010.5 |
| 20260505234053 | 50 | 100 | 0.0 | 6.0 | 0.00 | 0.00 | 0.00 | 45 | 1010.5 |
| 20260505233551 | 50 | 147 | 0.0 | 1.0 | 0.00 | 0.00 | 0.00 | 47 | 1010.5 |
| 20260505233051 | 50 | 134 | 0.0 | 7.0 | 0.00 | 0.00 | 0.00 | 46 | 1010.4 |
| 20260505232824 | 51 | 139 | 0.0 | 7.0 | 0.00 | 0.00 | 0.00 | 43 | 1010.4 |
| 20260505232050 | 51 | 146 | 0.0 | 4.0 | 0.00 | 0.00 | 0.00 | 46 | 1010.4 |
| 20260505231551 | 50 | 170 | 0.0 | 4.0 | 0.00 | 0.00 | 0.00 | 45 | 1010.4 |
| 20260505231049 | 50 | 125 | 0.0 | 2.0 | 0.00 | 0.00 | 0.00 | 46 | 1010.3 |
| 20260505230550 | 49 | 323 | 0.0 | 2.0 | 0.00 | 0.00 | 0.00 | 46 | 1010.4 |
| 20260505230049 | 49 | 101 | 0.0 | 2.0 | 0.00 | 0.00 | 0.00 | 47 | 1010.3 |
| 20260505225550 | 49 | 91 | 0.0 | 3.0 | 0.00 | 0.00 | 0.00 | 46 | 1010.4 |
| 20260505225048 | 50 | 22 | 0.0 | 3.0 | 0.00 | 0.00 | 0.00 | 43 | 1010.3 |
| 20260505224548 | 51 | 287 | 0.0 | 3.0 | 0.00 | 0.00 | 0.00 | 43 | 1010.3 |
| 20260505224049 | 52 | 314 | 0.0 | 3.0 | 0.00 | 0.00 | 0.00 | 45 | 1010.2 |
| 20260505223817 | 51 | 119 | 0.0 | 1.0 | 0.00 | 0.00 | 0.00 | 47 | 1010.2 |
| 20260505223045 | 49 | 115 | 0.0 | 3.0 | 0.00 | 0.00 | 0.00 | 44 | 1010.2 |
| 20260505222545 | 50 | 323 | 1.0 | 5.0 | 0.00 | 0.00 | 0.00 | 47 | 1010.3 |
| 20260505222043 | 50 | 124 | 1.0 | 6.0 | 0.00 | 0.00 | 0.00 | 45 | 1010.2 |
| 20260505221542 | 49 | 224 | 1.0 | 7.0 | 0.00 | 0.00 | 0.00 | 45 | 1010.3 |
| 20260505221042 | 49 | 136 | 1.0 | 7.0 | 0.00 | 0.00 | 0.00 | 46 | 1010.2 |
| 20260505220544 | 49 | 149 | 1.0 | 5.0 | 0.00 | 0.00 | 0.00 | 48 | 1010.3 |
| 20260505220312 | 49 | 170 | 3.0 | 10.0 | 0.00 | 0.00 | 0.00 | 44 | 1010.3 |
| 20260505215540 | 50 | 180 | 4.0 | 10.0 | 0.00 | 0.00 | 0.00 | 44 | 1010.3 |
| 20260505215312 | 50 | 156 | 4.0 | 8.0 | 0.00 | 0.00 | 0.00 | 46 | 1010.4 |
| 20260505214542 | 51 | 189 | 5.0 | 8.0 | 0.00 | 0.00 | 0.00 | 44 | 1010.5 |
| 20260505214314 | 52 | 201 | 5.0 | 8.0 | 0.00 | 0.00 | 0.00 | 44 | 1010.4 |
| 20260505213540 | 51 | 163 | 4.0 | 10.0 | 0.00 | 0.00 | 0.00 | 44 | 1010.4 |
| 20260505213041 | 51 | 191 | 2.0 | 10.0 | 0.00 | 0.00 | 0.00 | 43 | 1010.4 |
| 20260505212534 | 51 | 214 | 3.0 | 7.0 | 0.00 | 0.00 | 0.00 | 46 | 1010.4 |
| 20260505212027 | 50 | 190 | 5.0 | 11.0 | 0.00 | 0.00 | 0.00 | 44 | 1010.4 |
| 20260505211522 | 51 | 152 | 5.0 | 11.0 | 0.00 | 0.00 | 0.00 | 43 | 1010.5 |
| 20260505211015 | 52 | 228 | 2.0 | 9.0 | 0.00 | 0.00 | 0.00 | 42 | 1010.4 |
| 20260505210509 | 52 | 203 | 2.0 | 7.0 | 0.00 | 0.00 | 0.00 | 48 | 1010.6 |
| 20260505210005 | 51 | 277 | 2.0 | 7.0 | 0.00 | 0.00 | 0.00 | 46 | 1010.6 |
| 20260505205729 | 51 | 184 | 1.0 | 7.0 | 0.00 | 0.00 | 0.00 | 46 | 1010.5 |
| 20260505204958 | 52 | 203 | 1.0 | 7.0 | 0.00 | 0.00 | 0.00 | 46 | 1010.6 |
| 20260505204458 | 52 | 188 | 2.0 | 7.0 | 0.00 | 0.00 | 0.00 | 46 | 1010.7 |
| 20260505204000 | 51 | 36 | 4.0 | 9.0 | 0.00 | 0.00 | 0.00 | 46 | 1010.6 |
| 20260505203458 | 51 | 207 | 3.0 | 9.0 | 0.00 | 0.00 | 0.00 | 44 | 1010.5 |
| 20260505202956 | 51 | 120 | 3.0 | 7.0 | 0.00 | 0.00 | 0.00 | 45 | 1010.6 |
| 20260505202457 | 50 | 208 | 3.0 | 8.0 | 0.00 | 0.00 | 0.00 | 44 | 1010.7 |
| 20260505201956 | 51 | 197 | 2.0 | 8.0 | 0.00 | 0.00 | 0.00 | 46 | 1010.7 |
| 20260505201457 | 51 | 118 | 2.0 | 6.0 | 0.00 | 0.00 | 0.00 | 47 | 1010.8 |
| 20260505200956 | 51 | 217 | 1.0 | 6.0 | 0.00 | 0.00 | 0.00 | 43 | 1010.7 |
| 20260505200457 | 52 | 213 | 2.0 | 8.0 | 0.00 | 0.00 | 0.00 | 47 | 1010.8 |
| 20260505195956 | 52 | 143 | 2.0 | 8.0 | 0.00 | 0.00 | 0.00 | 42 | 1010.8 |
| 20260505195454 | 53 | 197 | 1.0 | 7.0 | 0.00 | 0.00 | 0.00 | 44 | 1010.7 |
| 20260505194955 | 52 | 47 | 1.0 | 7.0 | 0.00 | 0.00 | 0.00 | 47 | 1010.7 |
| 20260505194457 | 51 | 273 | 2.0 | 7.0 | 0.00 | 0.00 | 0.00 | 47 | 1010.6 |
| 20260505193952 | 51 | 99 | 3.0 | 7.0 | 0.00 | 0.00 | 0.00 | 45 | 1010.7 |
| 20260505193445 | 51 | 221 | 3.0 | 7.0 | 0.00 | 0.00 | 0.00 | 44 | 1010.6 |
| 20260505192940 | 51 | 193 | 2.0 | 7.0 | 0.00 | 0.00 | 0.00 | 43 | 1010.7 |
| 20260505192434 | 51 | 121 | 2.0 | 7.0 | 0.00 | 0.00 | 0.00 | 45 | 1010.7 |
| 20260505191927 | 51 | 169 | 2.0 | 7.0 | 0.00 | 0.00 | 0.00 | 47 | 1010.7 |
| 20260505191421 | 51 | 169 | 2.0 | 6.0 | 0.00 | 0.00 | 0.00 | 45 | 1010.8 |
| 20260505190916 | 51 | 102 | 1.0 | 6.0 | 0.00 | 0.00 | 0.00 | 45 | 1010.7 |
| 20260505190411 | 51 | 197 | 1.0 | 6.0 | 0.00 | 0.00 | 0.00 | 44 | 1010.7 |
| 20260505185911 | 51 | 214 | 1.0 | 4.0 | 0.00 | 0.00 | 0.00 | 45 | 1010.8 |
| 20260505185409 | 51 | 226 | 1.0 | 4.0 | 0.00 | 0.00 | 0.00 | 45 | 1010.8 |
| 20260505184908 | 50 | 338 | 1.0 | 5.0 | 0.00 | 0.00 | 0.00 | 44 | 1010.8 |
| 20260505184639 | 50 | 68 | 1.0 | 5.0 | 0.00 | 0.00 | 0.00 | 44 | 1010.7 |
| 20260505183907 | 50 | 126 | 1.0 | 5.0 | 0.00 | 0.00 | 0.00 | 46 | 1010.8 |
| 20260505183406 | 50 | 193 | 1.0 | 8.0 | 0.00 | 0.00 | 0.00 | 44 | 1010.8 |
| 20260505182903 | 50 | 309 | 3.0 | 8.0 | 0.00 | 0.00 | 0.00 | 44 | 1010.7 |
| 20260505182402 | 50 | 147 | 3.0 | 7.0 | 0.00 | 0.00 | 0.00 | 46 | 1010.7 |
| 20260505182134 | 50 | 203 | 4.0 | 8.0 | 0.00 | 0.00 | 0.00 | 46 | 1010.7 |
| 20260505181401 | 49 | 167 | 3.0 | 8.0 | 0.00 | 0.00 | 0.00 | 45 | 1010.7 |
| 20260505180903 | 49 | 193 | 1.0 | 8.0 | 0.00 | 0.00 | 0.00 | 45 | 1010.8 |
| 20260505180401 | 49 | 153 | 2.0 | 8.0 | 0.00 | 0.00 | 0.00 | 46 | 1010.7 |
| 20260505175901 | 49 | 130 | 4.0 | 8.0 | 0.00 | 0.00 | 0.00 | 48 | 1010.7 |
| 20260505175400 | 49 | 222 | 3.0 | 8.0 | 0.00 | 0.00 | 0.00 | 45 | 1010.7 |
| 20260505174900 | 49 | 214 | 1.0 | 5.0 | 0.00 | 0.00 | 0.00 | 45 | 1010.7 |
| 20260505174401 | 48 | 116 | 3.0 | 10.0 | 0.00 | 0.00 | 0.00 | 44 | 1010.7 |
| 20260505173859 | 49 | 215 | 4.0 | 10.0 | 0.00 | 0.00 | 0.00 | 44 | 1010.8 |
| 20260505173630 | 49 | 232 | 4.0 | 10.0 | 0.00 | 0.00 | 0.00 | 46 | 1010.7 |
| 20260505172853 | 50 | 153 | 2.0 | 10.0 | 0.00 | 0.00 | 0.00 | 45 | 1010.6 |
| 20260505172620 | 49 | 229 | 1.0 | 6.0 | 0.00 | 0.00 | 0.00 | 47 | 1010.8 |
| 20260505171841 | 49 | 98 | 2.0 | 10.0 | 0.00 | 0.00 | 0.00 | 43 | 1010.7 |
| 20260505171334 | 50 | 293 | 3.0 | 10.0 | 0.00 | 0.00 | 0.00 | 43 | 1010.8 |
| 20260505170829 | 52 | 110 | 4.0 | 10.0 | 0.00 | 0.00 | 0.00 | 41 | 1010.7 |
| 20260505170323 | 52 | 129 | 4.0 | 10.0 | 0.00 | 0.00 | 0.00 | 47 | 1010.7 |
| 20260505165817 | 51 | 165 | 4.0 | 9.0 | 0.00 | 0.00 | 0.00 | 52 | 1010.6 |
| 20260505165542 | 50 | 163 | 3.0 | 9.0 | 0.00 | 0.00 | 0.00 | 49 | 1010.8 |
| 20260505164806 | 49 | 203 | 3.0 | 9.0 | 0.00 | 0.00 | 0.00 | 50 | 1010.8 |
| 20260505164259 | 48 | 193 | 3.0 | 8.0 | 0.00 | 0.00 | 0.00 | 48 | 1010.7 |
| 20260505163753 | 49 | 186 | 3.0 | 7.0 | 0.00 | 0.00 | 0.00 | 45 | 1010.6 |
| 20260505163247 | 49 | 191 | 3.0 | 7.0 | 0.00 | 0.00 | 0.00 | 48 | 1010.6 |
| 20260505163009 | 49 | 128 | 4.0 | 11.0 | 0.00 | 0.00 | 0.00 | 49 | 1010.7 |
| 20260505162842 | 49 | 210 | 3.0 | 7.0 | 0.00 | 0.00 | 0.00 | 49 | 1010.6 |
| 20260505161959 | 49 | 103 | 4.0 | 11.0 | 0.00 | 0.00 | 0.00 | 49 | 1010.7 |
| 20260505161223 | 49 | 149 | 3.0 | 11.0 | 0.00 | 0.00 | 0.00 | 50 | 1010.6 |
| 20260505160716 | 48 | 153 | 1.0 | 7.0 | 0.00 | 0.00 | 0.00 | 50 | 1010.8 |
| 20260505160210 | 48 | 153 | 3.0 | 8.0 | 0.00 | 0.00 | 0.00 | 48 | 1010.7 |
| 20260505152629 | 46 | 158 | 0.0 | 5.0 | 0.00 | 0.00 | 0.00 | 49 | 1010.8 |
| 20260505152122 | 46 | 88 | 1.0 | 5.0 | 0.00 | 0.00 | 0.00 | 50 | 1010.7 |
| 20260505151617 | 46 | 359 | 2.0 | 6.0 | 0.00 | 0.00 | 0.00 | 47 | 1010.8 |
| 20260505151342 | 47 | 155 | 3.0 | 7.0 | 0.00 | 0.00 | 0.00 | 53 | 1010.6 |
| 20260505150605 | 47 | 233 | 2.0 | 7.0 | 0.00 | 0.00 | 0.00 | 50 | 1010.7 |
| 20260505124819 | 37 | 11 | 0.0 | 4.0 | 0.00 | 0.00 | 0.00 | 65 | 1009.6 |
| 20260505124313 | 36 | 328 | 0.0 | 3.0 | 0.00 | 0.00 | 0.00 | 66 | 1009.6 |
| 20260505123807 | 36 | 109 | 0.0 | 3.0 | 0.00 | 0.00 | 0.00 | 68 | 1009.5 |
| 20260505123300 | 35 | 105 | 1.0 | 5.0 | 0.00 | 0.00 | 0.00 | 69 | 1009.3 |
| 20260505122755 | 35 | 112 | 0.0 | 5.0 | 0.00 | 0.00 | 0.00 | 73 | 1009.2 |
| 20260505122249 | 34 | 114 | 0.0 | 1.0 | 0.00 | 0.00 | 0.00 | 75 | 1009.2 |
| 20260505121743 | 33 | 142 | 0.0 | 1.0 | 0.00 | 0.00 | 0.00 | 77 | 1009.2 |
| 20260505121236 | 33 | 129 | 0.0 | 1.0 | 0.00 | 0.00 | 0.00 | 79 | 1009.2 |
| 20260505120730 | 33 | 150 | 0.0 | 0.0 | 0.00 | 0.00 | 0.00 | 80 | 1009.1 |
| 20260505120225 | 32 | 103 | 0.0 | 1.0 | 0.00 | 0.00 | 0.00 | 81 | 1009.1 |
| 20260505115951 | 32 | 101 | 0.0 | 1.0 | 0.00 | 0.00 | 0.00 | 82 | 1009.0 |
| 20260505115212 | 31 | 122 | 0.0 | 1.0 | 0.00 | 0.00 | 0.00 | 83 | 1008.9 |
| 20260505114707 | 31 | 121 | 0.0 | 1.0 | 0.00 | 0.00 | 0.00 | 83 | 1008.9 |
| 20260505114201 | 31 | 117 | 0.0 | 1.0 | 0.00 | 0.00 | 0.00 | 85 | 1008.8 |
| 20260505113655 | 30 | 141 | 0.0 | 0.0 | 0.00 | 0.00 | 0.00 | 85 | 1008.7 |
| 20260505113421 | 30 | 141 | 0.0 | 0.0 | 0.00 | 0.00 | 0.00 | 84 | 1008.6 |
| 20260505112643 | 30 | 141 | 0.0 | 0.0 | 0.00 | 0.00 | 0.00 | 84 | 1008.6 |
| 20260505112137 | 30 | 141 | 0.0 | 0.0 | 0.00 | 0.00 | 0.00 | 84 | 1008.5 |
| 20260505111859 | 31 | 141 | 0.0 | 0.0 | 0.00 | 0.00 | 0.00 | 83 | 1008.4 |
| 20260505111733 | 30 | 141 | 0.0 | 0.0 | 0.00 | 0.00 | 0.00 | 83 | 1008.5 |
| 20260505110619 | 31 | 141 | 0.0 | 1.0 | 0.00 | 0.00 | 0.00 | 83 | 1008.4 |
| 20260505110113 | 31 | 135 | 0.0 | 1.0 | 0.00 | 0.00 | 0.00 | 83 | 1008.3 |
| 20260505102025 | 33 | 123 | 0.0 | 0.0 | 0.00 | 0.00 | 0.00 | 80 | 1008.0 |
| 20260505101519 | 33 | 123 | 0.0 | 1.0 | 0.00 | 0.00 | 0.00 | 80 | 1008.0 |
| 20260505101013 | 33 | 122 | 0.0 | 2.0 | 0.00 | 0.00 | 0.00 | 80 | 1008.0 |
| 20260505100506 | 33 | 107 | 0.0 | 4.0 | 0.00 | 0.00 | 0.00 | 80 | 1008.0 |
| 20260505100003 | 33 | 330 | 0.0 | 4.0 | 0.00 | 0.00 | 0.00 | 81 | 1008.1 |
| 20260505095455 | 33 | 122 | 0.0 | 1.0 | 0.00 | 0.00 | 0.00 | 81 | 1008.1 |
| 20260505094949 | 33 | 205 | 0.0 | 1.0 | 0.00 | 0.00 | 0.00 | 81 | 1008.1 |
| 20260505094443 | 33 | 205 | 0.0 | 1.0 | 0.00 | 0.00 | 0.00 | 81 | 1008.1 |
| 20260505093937 | 33 | 167 | 0.0 | 1.0 | 0.00 | 0.00 | 0.00 | 80 | 1008.0 |
| 20260505093702 | 33 | 127 | 0.0 | 1.0 | 0.00 | 0.00 | 0.00 | 80 | 1008.0 |
| 20260505092925 | 33 | 207 | 0.0 | 0.0 | 0.00 | 0.00 | 0.00 | 80 | 1007.9 |
| 20260505092418 | 34 | 162 | 0.0 | 1.0 | 0.00 | 0.00 | 0.00 | 79 | 1007.9 |
| 20260505092145 | 34 | 231 | 0.0 | 1.0 | 0.00 | 0.00 | 0.00 | 79 | 1007.8 |
| 20260505091406 | 34 | 169 | 0.0 | 3.0 | 0.00 | 0.00 | 0.00 | 78 | 1007.8 |